Lachezar Bojinov

Scout - Ludogorets
20 Feb 2028
Sunday
Process

Personality

Adaptability (8) Ambition (2) Controversy (3) Loyalty (3) Pressure (1) Professionalism (6) Sportsmanship (6) Temperament (10)

Profile

Coaching Style Democratic
License Continental A
Determination 11
Man Management 6
Motivating 6
Discipline 7
Job Satisfaction
100%
Fatigue
0%
Role Scout
Wage 71.8K p/w
Contract 14.03.2030

Performance

Behaviour Good
Training Effectiveness
48%
Player Development
30%
Injury Prevention
60%
Tactical Implementation
55%

Recent Events

Attended a recruitment meeting now
Attended a recruitment meeting now
Attended a recruitment meeting now
Recommended a transfer target now
Attended a recruitment meeting 7d ago
Recommended a transfer target 7d ago
Recommended a transfer target 7d ago
Recommended a transfer target 7d ago

Currently Monitoring

265
Player Club Status Ability Confidence Watched Last Observed Latest Vote
Stiven Palomeque Levski Report Ready 102 / 122 62% 1 31.01.2028 -
Davide Mastrantonio Latina Active 99 / 119 40% 1 08.01.2028 -
William Rovida Pro Patria Active 102 / 126 40% 1 08.01.2028 -
Todor Nedelev Botev Plovdiv Active 99 / 113 62% 1 07.01.2028 Approve
Yousef Salech Cardiff City Active 147 / 142 40% 6 01.01.2028 -
Bryan Ramírez FC Cincinnati Active 118 / 133 40% 3 31.12.2027 -
César Pérez Defensa y Justicia Active 131 / 129 40% 1 31.12.2027 -
Hwang Hee-Chan Wolverhampton Active 153 / 136 40% 7 29.12.2027 -
Zito Luvumbo Cagliari Active 123 / 139 40% 2 28.12.2027 -
Tyrese Campbell Sheffield United Active 127 / 142 40% 3 26.12.2027 -
Zeki Amdouni Burnley Active 139 / 141 40% 1 25.12.2027 -
Berna CSKA 1948 Active 129 / 113 40% 2 24.12.2027 -
William Osula Wrexham Active 123 / 131 40% 2 24.12.2027 -
Mathias Jørgensen Blackburn Rovers Active 130 / 132 40% 2 24.12.2027 -
Richarlison Brentford Active 135 / 155 40% 4 22.12.2027 -
Alexis Cuello San Lorenzo Active 118 / 131 40% 1 22.12.2027 -
Ez Abde Girona Active 170 / 156 40% 6 20.12.2027 -
Darwin Núñez Al-Hilal Active 143 / 163 40% 4 19.12.2027 -
Lewis Morgan SuperSport United Active 137 / 131 40% 11 18.12.2027 -
Lautaro Guzmán Lanús Active 115 / 125 40% 2 16.12.2027 -
Youssef En-Nesyri Al-Ittihad Active 146 / 136 40% 5 16.12.2027 -
Emiliano Álvarez Progreso Active 131 / 111 40% 2 16.12.2027 -
Santiago González Tigre Active 138 / 119 40% 1 14.12.2027 -
Alan Lescano Argentinos Juniors Active 147 / 117 40% 2 10.12.2027 -
Augusto Schott Talleres Active 123 / 129 40% 1 10.12.2027 -
Antony Alonso Deportivo Riestra Active 137 / 126 40% 1 09.12.2027 -
Afimico Pululu Rosario Central Lost 139 / 139 40% 2 07.12.2027 -
Ammar Ramadan DAC Dunajska Streda Active 122 / 125 40% 2 06.12.2027 -
Luciano Gondou CSKA Moscow Active 140 / 122 40% 9 05.12.2027 -
Marcelino Moreno Lanús Active 136 / 141 40% 3 05.12.2027 -
Luciano Cosentino Wanderers Active 113 / 126 40% 2 05.12.2027 -
Richard Koné Queens Park Rangers Active 130 / 133 40% 5 04.12.2027 -
Rumarn Burrell Queens Park Rangers Active 133 / 139 40% 2 04.12.2027 -
Duvan Rangel La Equidad Active 125 / 136 40% 4 01.12.2027 -
Juan Infante Atlético Tucumán Active 119 / 119 40% 2 01.12.2027 -
Ruben van Bommel Ferencvaros Active 140 / 138 40% 3 29.11.2027 -
Rhian Brewster Oxford United Active 116 / 137 40% 2 29.11.2027 -
Mateusz Bogusz Houston Dynamo Active 129 / 119 40% 1 28.11.2027 -
Liam Delap Nottingham Forest Active 156 / 144 40% 4 26.11.2027 -
Juan Brunetta FC Copenhagen Active 151 / 153 40% 2 25.11.2027 -
Gonzalo Fulham Active 157 / 142 40% 1 24.11.2027 -
Harry Wilson Leeds United Active 143 / 152 40% 1 22.11.2027 -
Diego García Defensor Sporting Active 121 / 106 40% 1 22.11.2027 -
Dwight McNeil Crystal Palace Active 146 / 138 40% 1 21.11.2027 -
Gonzalo Plata Rosario Central Active 137 / 146 40% 1 17.11.2027 -
Germán Berterame Vélez Active 129 / 134 40% 1 17.11.2027 -
Jonathan David Juventus Active 156 / 156 40% 3 12.11.2027 -
Thierno Barry Norwich City Active 157 / 130 40% 2 12.11.2027 -
Brennan Johnson Stoke City Active 140 / 156 40% 1 08.11.2027 -
Mojmír Chytil NK Maribor Active 135 / 127 40% 1 06.11.2027 -
Jhonatan Candia Barracas Central Active 119 / 129 40% 2 02.11.2027 -
Sasha Marcich Lanús Active 120 / 110 40% 2 02.11.2027 -
Hany Mukhtar Spezia Active 131 / 141 40% 7 01.11.2027 -
Brian Brobbey Sunderland Active 154 / 144 40% 1 31.10.2027 -
César Ibáñez Huracán Active 135 / 126 40% 2 28.10.2027 -
Fábio Carvalho Sheffield Wednesday Active 135 / 154 40% 1 28.10.2027 -
Largie Ramazani Leeds United Active 144 / 143 40% 2 26.10.2027 -
Patson Daka Leicester City Active 143 / 118 40% 2 25.10.2027 -
Alexander Díaz Deportivo Riestra Active 110 / 108 40% 2 21.10.2027 -
Gabriel Neves Estudiantes Active 115 / 115 40% 1 21.10.2027 -
Antonio Galeano Remo Stars Active 123 / 132 40% 4 20.10.2027 -
Joe Gelhardt Hull City Active 136 / 132 40% 3 14.10.2027 -
Gastón Lodico Racing Club Active 134 / 140 40% 2 14.10.2027 -
Jean-Philippe Mateta Crystal Palace Active 156 / 144 40% 1 11.10.2027 -
Cameron Archer Southampton Active 129 / 138 40% 1 10.10.2027 -
Oleksii Hutsuliak Polissia Active 123 / 123 40% 1 10.10.2027 -
Haji Wright Chesterfield Active 149 / 147 40% 1 08.10.2027 -
Sebastián Medina Tigre Active 137 / 132 40% 2 07.10.2027 -
Ivan Toney Al-Ahli Active 166 / 146 40% 1 05.10.2027 -
Noah Okafor Leeds United Active 159 / 148 40% 1 05.10.2027 -
Matko Miljevic Racing Club Active 134 / 123 40% 1 03.10.2027 -
Pavel Bucha FC Cincinnati Active 140 / 120 40% 1 30.09.2027 -
Edwuin Cetré Estudiantes Active 141 / 138 40% 1 30.09.2027 -
Joseph Paintsil LA Galaxy Active 144 / 126 40% 1 29.09.2027 -
Joaquín Gho Argentinos Juniors Active 134 / 135 40% 1 28.09.2027 -
Matías Fernández Independiente Rivadavia Active 135 / 106 40% 1 28.09.2027 -
Facundo Altamira Godoy Cruz Active 132 / 109 40% 1 25.09.2027 -
Lucas Souto Defensa y Justicia Active 129 / 134 40% 2 23.09.2027 -
Anders Dreyer San Diego Football Club Active 117 / 128 40% 1 23.09.2027 -
Manuel Duarte Barracas Central Active 108 / 129 40% 2 22.09.2027 -
Alejo Cruz Juventud Active 137 / 111 40% 2 18.09.2027 -
Ulises Sánchez Gimnasia y Esgrima Active 133 / 132 40% 1 18.09.2027 -
Tiago Palacios Estudiantes Active 136 / 141 40% 1 12.09.2027 -
Matías Zaracho Racing Club Active 116 / 132 40% 1 08.09.2027 -
Vicente Poggi Godoy Cruz Active 130 / 136 40% 1 08.09.2027 -
Gonzalo Abrego Godoy Cruz Active 115 / 126 40% 1 06.09.2027 -
Gastón Togni Defensa y Justicia Active 117 / 130 40% 1 06.09.2027 -
Jayden Danns Wigan Athletic Active 121 / 130 40% 1 31.08.2027 -
Imran Oulad Omar Dinamo Batumi Active 112 / 113 40% 1 23.08.2027 -
Dany Mota Monza Active 123 / 129 40% 2 16.08.2027 -
Nadir Zortea Bologna Active 139 / 151 40% 2 10.08.2027 -
Ilario Monterisi Frosinone Active 149 / 139 40% 1 10.08.2027 -
Morgan Whittaker Middlesbrough Active 138 / 129 40% 2 08.08.2027 -
Tyreece Campbell Charlton Athletic Active 135 / 112 40% 1 08.08.2027 -
Aune Heggebø West Bromwich Albion Active 129 / 135 40% 2 07.08.2027 -
Aidomo Emakhu Oxford United Active 118 / 135 40% 1 07.08.2027 -
Kelly Saravanan Salford City Active 122 / 125 40% 1 06.08.2027 -
Will Lankshear Middlesbrough Active 128 / 126 40% 3 03.08.2027 -
Toby Collyer West Bromwich Albion Active 122 / 145 40% 2 02.08.2027 -
Christian Saydee Wigan Athletic Active 109 / 125 40% 1 02.08.2027 -
Iwan Morgan Grimsby Town Active 114 / 109 40% 1 02.08.2027 -
Julio Alonso Huesca Active 122 / 118 40% 1 02.08.2027 -
Tommy Conway Middlesbrough Active 132 / 137 40% 4 31.07.2027 -
Leo Castledine Middlesbrough Lost 129 / 132 40% 1 31.07.2027 -
Luis Vázquez Birmingham Active 122 / 126 40% 1 29.07.2027 -
Evidence Makgopa Orlando Pirates Active 112 / 124 40% 1 29.07.2027 -
Zakaria Aboukhlal Torino Active 139 / 144 40% 1 28.07.2027 -
Chris Mepham West Bromwich Albion Active 140 / 142 40% 1 26.07.2027 -
Shea Charles Southampton Active 146 / 149 40% 1 26.07.2027 -
Bojan Radulović Huddersfield Town Active 118 / 123 40% 1 25.07.2027 -
Nikola Vlašić Torino Active 150 / 138 40% 1 22.07.2027 -
Armando Broja Burnley Active 129 / 127 40% 1 20.07.2027 -
Victor Torp Coventry City Active 122 / 119 40% 1 19.07.2027 -
Wilson Isidor Sunderland Active 133 / 140 40% 1 19.07.2027 -
Isaiah Jones Luton Town Active 132 / 131 40% 1 16.07.2027 -
Ryoya Morishita Blackburn Rovers Active 118 / 114 40% 1 15.07.2027 -
Bosun Lawal Stoke City Active 137 / 131 40% 1 14.07.2027 -
Stanley Mills Oxford United Active 115 / 125 40% 1 14.07.2027 -
Lorenzo Di Stefano Torres Active 101 / 111 40% 1 14.07.2027 -
Bradley Fink Wycombe Wanderers Active 109 / 124 40% 1 14.07.2027 -
Sam Bell Bristol City Active 122 / 125 40% 1 12.07.2027 -
Ilyas Ansah Hull City Active 134 / 126 40% 1 12.07.2027 -
Derensili Sanches Fernandes Huddersfield Town Active 116 / 114 40% 4 10.07.2027 -
Azor Matusiwa Ipswich Town Active 141 / 131 40% 1 10.07.2027 -
Callum O'Hare Sheffield United Active 146 / 127 40% 2 09.07.2027 -
Santiago Pierotti Lecce Active 128 / 122 40% 1 09.07.2027 -
Mandla Erasmus SuperSport United Active 130 / 121 40% 4 06.07.2027 -
Ben Sheaf Wrexham Active 120 / 130 40% 2 06.07.2027 -
Callum Doyle Wrexham Active 140 / 128 40% 1 03.07.2027 -
Josh Tymon Swansea City Active 140 / 122 40% 1 02.07.2027 -
Will Smallbone Southampton Active 132 / 132 40% 1 01.07.2027 -
Ronnie Edwards Queens Park Rangers Active 123 / 121 40% 1 01.07.2027 -
Fedor Lapoukhov CSKA Sofia Active 117 / 119 40% 1 30.06.2027 -
Max O'Leary West Bromwich Albion Active 133 / 114 40% 1 30.06.2027 -
Edoardo Bove Watford Active 135 / 132 40% 1 28.06.2027 -
Milan van Ewijk Mansfield Town Active 131 / 141 40% 3 26.06.2027 -
Isaac Price West Bromwich Albion Active 122 / 123 40% 1 26.06.2027 -
Kwame Poku Queens Park Rangers Active 115 / 117 40% 2 24.06.2027 -
Etiosa Ighodaro Kaizer Chiefs Active 122 / 105 40% 1 24.06.2027 -
Caolan Boyd-Munce Wycombe Wanderers Active 118 / 128 40% 2 21.06.2027 -
Adam Randell Bristol City Active 128 / 125 40% 1 21.06.2027 -
Cristian Shpendi Cesena Active 121 / 147 40% 3 18.06.2027 -
Konan N'Dri Lecce Active 136 / 124 40% 1 18.06.2027 -
Jack Currie Oxford United Active 122 / 134 40% 1 14.06.2027 -
Stanislav Ivanov Arda Active 115 / 127 62% 1 04.06.2027 Approve
Mustapha Sangaré Levski Active 117 / 121 62% 1 01.06.2027 Approve
Egil Selvik Watford Active 125 / 133 40% 1 01.06.2027 -
Michael Cooper Sheffield United Active 121 / 125 40% 2 31.05.2027 -
Radek Vítek Middlesbrough Active 134 / 128 40% 1 31.05.2027 -
Riley McGree Middlesbrough Active 127 / 131 40% 2 30.05.2027 -
Derry Murkin Derby County Active 132 / 124 40% 1 26.05.2027 -
Cristopher Varela Deportivo La Guaira Active 110 / 104 40% 2 24.05.2027 -
Scott Twine Bristol City Active 131 / 120 40% 1 24.05.2027 -
Tatsuhiro Sakamoto Coventry City Active 139 / 124 40% 1 24.05.2027 -
Jason Knight Bristol City Active 137 / 143 40% 2 22.05.2027 -
Maduka Okoye Udinese Active 151 / 149 40% 1 22.05.2027 -
Othmane Maamma Watford Active 120 / 121 40% 2 18.05.2027 -
Lewis Bate Stockport County Active 120 / 132 40% 1 18.05.2027 -
Leandro Martins Benfica Active 80 / 111 40% 1 17.05.2027 -
Keagan Tau Ajax Cape Town Active 87 / 96 40% 1 17.05.2027 -
Callum Brittain Middlesbrough Active 136 / 121 40% 1 14.05.2027 -
Sorba Thomas Stoke City Active 124 / 138 40% 2 13.05.2027 -
Mamadou Sangaré Brentford Active 142 / 131 40% 1 11.05.2027 -
Kasey McAteer Ipswich Town Active 132 / 121 40% 1 11.05.2027 -
Aaron Collins Milton Keynes Dons Active 126 / 119 40% 1 07.05.2027 -
Darryl Bakola Padova Active 116 / 123 40% 1 06.05.2027 -
Percy Jali Free State Stars Active 93 / 100 40% 1 06.05.2027 -
Enzo Vázquez Central Norte Active 124 / 109 40% 2 05.05.2027 -
Alessio Zerbin Frosinone Active 119 / 117 40% 2 03.05.2027 -
Cher Ndour Fiorentina Active 130 / 137 40% 1 03.05.2027 -
Daniel Kelly Oxford United Active 107 / 109 40% 2 01.05.2027 -
Gaetano Castrovilli Cesena Active 132 / 114 40% 2 01.05.2027 -
Jorge Meireles AVS Active 115 / 112 40% 2 30.04.2027 -
Younes Ebnoutalib Eintracht Frankfurt Active 124 / 122 40% 1 30.04.2027 -
Zaïd BafdilI Sporting CP Active 88 / 114 40% 1 28.04.2027 -
Álex Centelles Levski Active 133 / 128 40% 7 27.04.2027 Monitor
Jofre Torrents Ajax Active 120 / 130 40% 2 26.04.2027 -
Nazareno Kihm Ferro Carril Oeste Active 105 / 110 40% 1 26.04.2027 -
Kristian Thorstvedt Sassuolo Active 128 / 136 40% 2 25.04.2027 -
Jayden Addai Como Active 138 / 123 40% 1 25.04.2027 -
Nahuel Galardi Maipú Active 120 / 109 40% 1 24.04.2027 -
Matevž Vidovšek Olimpija Ljubljana Active 130 / 127 40% 1 24.04.2027 -
Che Adams Torino Active 127 / 133 40% 4 23.04.2027 -
Victor Parada Spartak Moscow Active 122 / 131 40% 3 20.04.2027 -
Marquinhos Spartak Moscow Active 138 / 137 40% 7 19.04.2027 -
Georges-Kévin Nkoudou Al-Diriyah Active 145 / 135 40% 2 17.04.2027 -
Mattéo Tramoni Pisa Active 142 / 145 40% 1 17.04.2027 -
Sascha Britschgi Padova Active 106 / 121 40% 1 15.04.2027 -
Davide Bartesaghi AC Milan Active 121 / 123 40% 1 13.04.2027 -
Samuele di Benedetto Bari Active 122 / 119 40% 1 13.04.2027 -
John Yeboah Venezia Active 124 / 111 40% 1 13.04.2027 -
Eduardo Felicíssimo Sporting CP Active 99 / 113 40% 2 11.04.2027 -
Dmitry Pestryakov Dinamo Moscow Active 112 / 125 40% 1 11.04.2027 -
Gabriel Strefezza Palermo Active 117 / 135 40% 2 09.04.2027 -
Keagan Phiri Platinum Stars Active 97 / 102 40% 1 08.04.2027 -
Elia Boseggia Novara Active 109 / 127 40% 1 07.04.2027 -
Domenico Berardi Sassuolo Active 148 / 143 40% 1 05.04.2027 -
Lameck Banda Lecce Active 115 / 140 40% 1 04.04.2027 -
Mohau Nkota Al-Ettifaq Active 109 / 117 40% 2 03.04.2027 -
Esequiel Barco Spartak Moscow Active 135 / 130 40% 2 01.04.2027 -
Filippo Ranocchia Palermo Active 142 / 118 40% 1 01.04.2027 -
Yacine Adli Al-Shabab Active 145 / 132 40% 2 30.03.2027 -
Santiago Silva CFR Cluj Active 118 / 126 40% 2 30.03.2027 -
Samuele Angori Pisa Active 127 / 145 40% 1 30.03.2027 -
George Wickens Lincoln City Active 125 / 127 40% 1 30.03.2027 -
Hlompho Lorch Ajax Cape Town Active 102 / 104 40% 1 28.03.2027 -
Martim Cunha Porto Active 87 / 98 40% 1 28.03.2027 -
Jerónimo Pourtau Talleres Active 105 / 124 40% 2 26.03.2027 -
Rubens Dinamo Moscow Active 133 / 133 40% 4 25.03.2027 -
Gonçalo Oliveira Benfica Active 99 / 124 40% 1 23.03.2027 -
Marko Grujić Levski Active 132 / 115 40% 1 18.03.2027 -
Mazire Soula Levski Active 110 / 114 40% 1 17.03.2027 Needs More Info
José Martínes CSKA 1948 Active 111 / 109 40% 1 16.03.2027 -
Anton Miranchuk Dinamo Moscow Active 125 / 129 40% 1 16.03.2027 -
Nikita Kokarev Zenit Active 115 / 124 40% 3 13.03.2027 -
Sol Brynn Krasnodar Active 131 / 123 40% 1 13.03.2027 -
Ilja Vakhania Krasnodar Active 126 / 116 40% 2 09.03.2027 -
Alexandr Siljanov Lokomotiv Moscow Active 132 / 123 40% 1 09.03.2027 -
Siaka Diaby Stade Malien Active 107 / 91 40% 1 28.02.2027 -
Ander Astralaga Real Sociedad Active 130 / 123 40% 1 26.02.2027 -
Bradley Mabunda SuperSport United Active 115 / 112 40% 2 25.02.2027 -
Williams Manyama SuperSport United Active 121 / 124 40% 1 23.02.2027 -
Alexandr Koryakin Krasnodar Active 116 / 105 40% 1 19.02.2027 -
Bento Al-Nassr Active 141 / 128 40% 1 19.02.2027 -
Matevž Dajčar Olimpija Ljubljana Active 115 / 102 40% 1 18.02.2027 -
Aldo Pérez Guarani Active 126 / 121 40% 2 16.02.2027 -
Felipe San Juan Gimnasia y Esgrima Active 102 / 100 40% 1 16.02.2027 -
Santiago Roggero Gimnasia y Esgrima Active 117 / 106 40% 1 14.02.2027 -
Richard Ludha MFK Skalica Active 106 / 106 40% 1 09.02.2027 -
Tomás Durso Atlético Tucumán Active 110 / 116 40% 1 04.02.2027 -
Maksim Samorodov Akhmat Grozny Active 120 / 115 40% 1 04.02.2027 -
Manfred Ugalde Spartak Moscow Active 124 / 133 40% 1 03.02.2027 -
Oswin Appollis Orlando Pirates Active 116 / 128 40% 3 27.12.2026 -
Juan Giménez Celta Active 110 / 111 40% 1 27.12.2026 -
Gonçalo Nogueira Vitoria Guimaraes Active 125 / 116 40% 1 27.12.2026 -
Femi Seriki Sheffield United Active 129 / 118 40% 2 26.12.2026 -
Denzel Jubitana Neftchi Active 128 / 126 40% 1 21.12.2026 -
Suleiman Camara Slovan Bratislava Active 121 / 124 40% 1 19.12.2026 -
Bongani Modiba Black Aces Active 111 / 115 40% 1 09.12.2026 -
Marcelo Allende Mamelodi Sundowns Active 126 / 122 40% 1 30.11.2026 -
Crysencio Summerville Al-Hilal Active 137 / 133 40% 2 18.11.2026 -
Christos Mouzakitis Hull City Active 137 / 129 40% 1 04.11.2026 -
Rahim Ibrahim Slovan Bratislava Active 131 / 131 40% 2 01.11.2026 -
James Eto'o CSKA Sofia Active 116 / 127 40% 3 29.10.2026 -
Andrei Cordea CFR Cluj Active 112 / 122 40% 1 22.10.2026 -
Pastor CSKA Sofia Active 115 / 110 40% 1 12.10.2026 -
Anderson Arroyo Rubin Active 125 / 119 40% 1 05.10.2026 -
Ramiro Ruiz Rodríguez Atlético Tucumán Active 130 / 119 40% 2 29.09.2026 -
Costinha Brighton Active 110 / 123 40% 1 24.09.2026 -
João Gomes Aston Villa Active 154 / 139 40% 1 21.09.2026 -
Matthias Seidl Rapid Wien Active 115 / 137 40% 1 20.09.2026 -
Eduard Spertsyan Al-Ahli Active 130 / 148 40% 1 17.09.2026 -
Fernando Costanza Krylya Sovetov Active 122 / 130 40% 2 15.09.2026 -
Mariano Bracamonte Deportivo Riestra Active 103 / 129 40% 1 13.09.2026 -
Samú Al-Nassr Active 129 / 135 40% 1 10.09.2026 -
Svit Sešlar NK Celje Active 129 / 125 40% 1 07.09.2026 -
Jack Fletcher Manchester United Active 116 / 106 40% 1 06.09.2026 -
João Simões Sporting CP Active 126 / 121 40% 1 05.09.2026 -
Iker Córdoba Valencia Active 98 / 107 40% 1 05.09.2026 -
Miodrag Pivaš Bristol City Active 114 / 122 40% 1 04.09.2026 -
Felipe Obradovich Ferro Carril Oeste Active 103 / 130 40% 1 03.09.2026 -
Nejc Viher NK Maribor Active 107 / 116 40% 1 01.09.2026 -
Ignacio Ovando Rosario Central Active 88 / 121 40% 1 18.08.2026 -
Joel Godoy Sarmiento Active 118 / 104 40% 1 18.08.2026 -
Parvizjon Umarbaev Lokomotiv Plovdiv Active 117 / 106 58% 1 03.08.2026 -